Find Starlink 38130

NORAD ID: 100187 Int'l Des: 2026-175 Owner: SPXS Country: US Constellation: starlink operational

Aktuelle Ansicht

3D-Globus wird geladen...

About Starlink 38130

Starlink 38130 (NORAD 100187) is a starlink constellation satellite launched Aug 1, 2026 by SPXS of US. with a mass of 575.00 kg.

Nächste Überflüge

Passes for default location (London). Set your location on the main map for personalized predictions.

Höhenverlauf

Loading altitude history...

Zweizeiliger Elementsatz

1 A0187U 26175J 26228.82065520 .00133817 00000-0 88230-3 0 9992
2 A0187 97.2843 69.4952 0001598 95.2368 264.9080 15.75235466 3716
Epoch: 16. Aug. 2026 • Age: 10 hours

Aktueller Status

Höhe 351.2 km
Apogäum / Perigäum N/A
Geschwindigkeit 7.70 km/s
Subsatellitenpunkt 51.78°N, 147.15°W
Startdatum 1. Aug. 2026
Alter 16 days
Typ internet

Technische Details

Klassifizierung Payload
Masse 575.00 kg
Trockenmasse 530.00 kg
Gesamtmasse 575.00 kg
Länge 0.30 m
Durchmesser 4.10 m
Spannweite 29.00 m
Form Box + pan
Hersteller SPXS
Bus-Typ Starlink V2MO
Phasenstatus In Orbit
Besitzer/Staat SPXS/US

Most Searched